When you browse on this site, cookies collect data to enhance your experience and personalize the content and advertising you see.
Visit our Privacy Policy to learn more. By continuing to use the site, you agree to this use of cookies and data.
  • Em Portugal
  • Lista de países
  • Para 7 dias
  • Temperatura da água
  • Mapa do tempo
  • Widgets de tempo
  • user-avatar
    Iniciar Sessão

    Previsão horária em Marin

    Hoje, 21 Agosto, Quarta-feira

    Tempo Temperatura Precipitação Vento Pressão Humidade
    00:00 +17°C° 0 mm 3 m/s 757 mmHg 82%
    01:00 +17°C° 0 mm 3 m/s 757 mmHg 83%
    02:00 +17°C° 0 mm 3 m/s 756 mmHg 84%
    03:00 +17°C° 0 mm 3 m/s 756 mmHg 84%
    04:00 +17°C° 0 mm 2 m/s 756 mmHg 84%
    05:00 +16°C° 0 mm 2 m/s 756 mmHg 84%
    06:00 +19°C° 0 mm 2 m/s 756 mmHg 73%
    07:00 +23°C° 0 mm 2 m/s 757 mmHg 62%
    08:00 +26°C° 0 mm 2 m/s 757 mmHg 51%
    09:00 +28°C° 0 mm 2 m/s 757 mmHg 44%
    10:00 +31°C° 0 mm 2 m/s 757 mmHg 37%
    11:00 +33°C° 0 mm 1 m/s 757 mmHg 30%
    12:00 +35°C° 0 mm 2 m/s 756 mmHg 29%
    13:00 +35°C° 0 mm 2 m/s 756 mmHg 28%
    14:00 +35°C° 0 mm 3 m/s 756 mmHg 27%
    15:00 +33°C° 0 mm 3 m/s 756 mmHg 33%
    16:00 +31°C° 0 mm 3 m/s 756 mmHg 39%
    17:00 +29°C° 0 mm 3 m/s 756 mmHg 46%
    18:00 +27°C° 0 mm 3 m/s 756 mmHg 54%
    19:00 +25°C° 0 mm 3 m/s 756 mmHg 62%
    20:00 +21°C° 0 mm 3 m/s 757 mmHg 71%
    21:00 +20°C° 0 mm 3 m/s 757 mmHg 74%
    22:00 +20°C° 0 mm 3 m/s 757 mmHg 76%
    23:00 +19°C° 0 mm 3 m/s 757 mmHg 79%

    Amanhã, 22 Agosto, Quinta-feira

    Tempo Temperatura Precipitação Vento Pressão Humidade
    00:00 +18°C° 0 mm 3 m/s 757 mmHg 80%
    01:00 +18°C° 0 mm 3 m/s 756 mmHg 82%
    02:00 +18°C° 0 mm 3 m/s 756 mmHg 83%
    03:00 +18°C° 0 mm 3 m/s 756 mmHg 84%
    04:00 +17°C° 0 mm 3 m/s 756 mmHg 85%
    05:00 +17°C° 0 mm 2 m/s 756 mmHg 86%
    06:00 +20°C° 0 mm 2 m/s 756 mmHg 74%
    07:00 +25°C° 0 mm 2 m/s 756 mmHg 63%
    08:00 +28°C° 0 mm 2 m/s 756 mmHg 52%
    09:00 +31°C° 0 mm 2 m/s 756 mmHg 43%
    10:00 +34°C° 0 mm 1 m/s 756 mmHg 33%
    11:00 +37°C° 0 mm 1 m/s 755 mmHg 24%
    12:00 +38°C° 0 mm 2 m/s 755 mmHg 24%
    13:00 +37°C° 0 mm 2 m/s 755 mmHg 24%
    14:00 +37°C° 0 mm 2 m/s 754 mmHg 24%
    15:00 +36°C° 0 mm 2 m/s 754 mmHg 28%
    16:00 +35°C° 0 mm 2 m/s 754 mmHg 31%
    17:00 +32°C° 0 mm 1 m/s 754 mmHg 35%
    18:00 +30°C° 0 mm 1 m/s 754 mmHg 40%
    19:00 +28°C° 0 mm 1 m/s 754 mmHg 46%
    20:00 +26°C° 0 mm 2 m/s 755 mmHg 51%
    21:00 +25°C° 0 mm 2 m/s 755 mmHg 53%
    22:00 +25°C° 0 mm 2 m/s 754 mmHg 55%
    23:00 +24°C° 0 mm 2 m/s 754 mmHg 56%

    Depois de amanhã, 23 Agosto, Sexta-feira

    Tempo Temperatura Precipitação Vento Pressão Humidade
    00:00 +24°C° 0 mm 2 m/s 754 mmHg 58%
    01:00 +23°C° 0 mm 2 m/s 754 mmHg 61%
    02:00 +23°C° 0 mm 2 m/s 753 mmHg 63%
    03:00 +23°C° 0 mm 2 m/s 753 mmHg 61%
    04:00 +21°C° 0 mm 2 m/s 753 mmHg 59%
    05:00 +22°C° 0 mm 1 m/s 753 mmHg 57%
    06:00 +25°C° 0 mm 1 m/s 753 mmHg 48%
    07:00 +28°C° 0 mm 1 m/s 754 mmHg 40%
    08:00 +31°C° 0 mm 1 m/s 754 mmHg 31%
    09:00 +33°C° 0 mm 1 m/s 754 mmHg 29%
    10:00 +35°C° 0 mm 2 m/s 754 mmHg 26%
    11:00 +37°C° 0 mm 3 m/s 754 mmHg 23%
    12:00 +36°C° 0 mm 2 m/s 754 mmHg 25%
    13:00 +36°C° 0 mm 2 m/s 753 mmHg 26%
    14:00 +35°C° 0 mm 2 m/s 753 mmHg 27%
    15:00 +34°C° 0 mm 2 m/s 753 mmHg 32%
    16:00 +31°C° 0 mm 2 m/s 753 mmHg 37%
    17:00 +30°C° 0 mm 1 m/s 754 mmHg 42%
    18:00 +27°C° 0 mm 1 m/s 754 mmHg 49%
    19:00 +25°C° 0 mm 1 m/s 754 mmHg 55%
    20:00 +22°C° 0 mm 1 m/s 755 mmHg 62%
    21:00 +22°C° 0 mm 1 m/s 755 mmHg 60%
    22:00 +22°C° 0 mm 1 m/s 754 mmHg 59%
    23:00 +22°C° 0 mm 1 m/s 754 mmHg 57%

    24 Agosto, Sábado

    Tempo Temperatura Precipitação Vento Pressão Humidade
    00:00 +22°C° 0 mm 1 m/s 754 mmHg 57%
    01:00 +21°C° 0 mm 1 m/s 754 mmHg 56%
    02:00 +21°C° 0 mm 1 m/s 754 mmHg 56%
    03:00 +21°C° 0 mm 1 m/s 754 mmHg 58%
    04:00 +20°C° 0 mm 1 m/s 754 mmHg 60%
    05:00 +20°C° 0 mm 1 m/s 754 mmHg 61%
    06:00 +23°C° 0 mm 1 m/s 754 mmHg 55%
    07:00 +26°C° 0 mm 1 m/s 754 mmHg 48%
    08:00 +28°C° 0 mm 1 m/s 754 mmHg 42%
    09:00 +30°C° 0 mm 2 m/s 754 mmHg 38%
    10:00 +31°C° 0 mm 2 m/s 754 mmHg 35%
    11:00 +34°C° 0 mm 3 m/s 754 mmHg 32%
    12:00 +33°C° 0 mm 3 m/s 754 mmHg 33%
    13:00 +33°C° 0 mm 3 m/s 754 mmHg 33%
    14:00 +31°C° 0 mm 3 m/s 754 mmHg 34%
    15:00 +30°C° 0 mm 3 m/s 754 mmHg 39%
    16:00 +28°C° 0 mm 3 m/s 754 mmHg 44%
    17:00 +27°C° 0 mm 3 m/s 754 mmHg 49%
    18:00 +25°C° 0 mm 2 m/s 754 mmHg 58%
    19:00 +23°C° 0 mm 2 m/s 755 mmHg 67%
    20:00 +19°C° 0 mm 2 m/s 755 mmHg 75%
    21:00 +19°C° 0 mm 2 m/s 755 mmHg 77%
    22:00 +19°C° 0 mm 3 m/s 755 mmHg 78%
    23:00 +18°C° 0 mm 3 m/s 754 mmHg 79%

    25 Agosto, Domingo

    Tempo Temperatura Precipitação Vento Pressão Humidade
    00:00 +18°C° 0 mm 3 m/s 754 mmHg 81%
    01:00 +18°C° 0 mm 3 m/s 754 mmHg 82%
    02:00 +18°C° 0 mm 3 m/s 753 mmHg 84%
    03:00 +17°C° 0 mm 3 m/s 754 mmHg 84%
    04:00 +17°C° 0 mm 3 m/s 754 mmHg 84%
    05:00 +17°C° 0 mm 3 m/s 754 mmHg 85%
    06:00 +19°C° 0 mm 3 m/s 754 mmHg 75%
    07:00 +21°C° 0 mm 3 m/s 754 mmHg 64%
    08:00 +25°C° 0 mm 3 m/s 754 mmHg 54%
    09:00 +27°C° 0 mm 3 m/s 754 mmHg 49%
    10:00 +29°C° 0 mm 3 m/s 754 mmHg 43%
    11:00 +31°C° 0 mm 3 m/s 754 mmHg 38%
    12:00 +33°C° 0 mm 4 m/s 754 mmHg 37%
    13:00 +33°C° 0 mm 4 m/s 754 mmHg 37%
    14:00 +33°C° 0 mm 4 m/s 754 mmHg 37%
    15:00 +32°C° 0 mm 4 m/s 754 mmHg 41%
    16:00 +29°C° 0 mm 4 m/s 754 mmHg 46%
    17:00 +28°C° 0 mm 4 m/s 754 mmHg 50%
    18:00 +26°C° 0 mm 4 m/s 754 mmHg 57%
    19:00 +23°C° 0 mm 4 m/s 755 mmHg 64%
    20:00 +20°C° 0 mm 4 m/s 755 mmHg 71%
    21:00 +20°C° 0 mm 4 m/s 755 mmHg 72%
    22:00 +19°C° 0 mm 4 m/s 755 mmHg 73%
    23:00 +19°C° 0 mm 4 m/s 755 mmHg 75%

    26 Agosto, Segunda-feira

    Tempo Temperatura Precipitação Vento Pressão Humidade
    00:00 +18°C° 0 mm 4 m/s 755 mmHg 78%
    01:00 +18°C° 0 mm 3 m/s 754 mmHg 82%
    02:00 +17°C° 0 mm 3 m/s 754 mmHg 86%
    03:00 +17°C° 0 mm 3 m/s 754 mmHg 87%
    04:00 +17°C° 0 mm 3 m/s 754 mmHg 88%
    05:00 +17°C° 0 mm 3 m/s 755 mmHg 90%
    06:00 +20°C° 0 mm 2 m/s 755 mmHg 78%
    07:00 +24°C° 0 mm 2 m/s 755 mmHg 67%
    08:00 +27°C° 0 mm 1 m/s 755 mmHg 55%
    09:00 +30°C° 0 mm 1 m/s 755 mmHg 47%
    10:00 +33°C° 0 mm 1 m/s 755 mmHg 39%
    11:00 +36°C° 0 mm 1 m/s 754 mmHg 31%
    12:00 +36°C° 0 mm 1 m/s 754 mmHg 31%
    13:00 +37°C° 0 mm 2 m/s 754 mmHg 30%
    14:00 +37°C° 0 mm 2 m/s 754 mmHg 29%
    15:00 +35°C° 0 mm 2 m/s 754 mmHg 35%
    16:00 +32°C° 0 mm 1 m/s 754 mmHg 41%
    17:00 +30°C° 0 mm 1 m/s 754 mmHg 46%
    18:00 +29°C° 0 mm 1 m/s 755 mmHg 50%
    19:00 +27°C° 0 mm 1 m/s 755 mmHg 53%
    20:00 +25°C° 0 mm 1 m/s 755 mmHg 56%
    21:00 +25°C° 0 mm 1 m/s 755 mmHg 55%
    22:00 +25°C° 0 mm 1 m/s 755 mmHg 54%
    23:00 +25°C° 0 mm 1 m/s 755 mmHg 53%
    Mostrar mais